User: anonymous   Login
Location: Unspecified
(0.0000°N, 0.0000°E)
Time: 19:00:53
(UTC+00:00)
Language:

PLEIADES 1B - Orbit

View from above orbital plane
View from above orbital plane
View from above satellite
View from above satellite

Ground track
Ground track

The orbit data is extracted from the following two-line orbital elements,

1 39019U 12068A   14325.42810379  .00000785  00000-0  17863-3 0  2797
2 39019 098.1862 038.1753 0001374 074.1730 285.9623 14.58559833104878
Epoch (UTC): 21 November 2014 10:16:28
Eccentricity: 0.0001374
inclination: 98.1862°
perigee height: 697 km
apogee height: 699 km
right ascension of ascending node: 38.1753°
argument of perigee: 74.1730°
revolutions per day: 14.58559833
mean anomaly at epoch: 285.9623°
orbit number at epoch: 10487

The dashed part of the orbit path shows where the satellite is in the earth's shadow,  

DLR